Cloud_Cover
97 100 99 96 100 99 100 100 100 100 100 97 33 5 5 5 5 8 100 62 98 58 100 100 100 75 10 70 5 5 30 47 40 100 100 99 22 30 74 92 100 100 82 4
95 100 93 100 100 100 100 100 92 100 100 92 12 4 41 5 51 60 98 86 92 52 91 100 74 80 26 69 14 5 93 100 95 100 100 100 88 94 100 100 100 100 82 96
100 100 100 100 100 99 100 98 83 100 98 77 12 98 6 44 79 91 95 8 40 62 69 67 64 99 44 5 26 56 85 90 100 100 92 75 90 52 100 100 99 100 100 100
100 100 93 43 31 12 68 7 14 43 83 81 100 76 5 6 6 62 5 5 5 19 43 67 63 97 86 6 20 49 16 63 35 88 18 34 100 85 73 99 95 99 100 100
95 95 97 13 93 37 22 70 100 92 6 8 11 68 39 5 22 16 16 2 0 5 5 19 13 18 33 5 5 15 5 59 36 40 7 6 10 6 59 54 21 42 82 100
100 100 100 100 100 80 100 100 100 95 87 100 100 58 70 58 80 27 4 5 0 0 0 1 0 6 1 4 15 100 95 96 89 98 97 94 5 5 5 5 0 3 54 91
91 100 100 99 100 100 100 100 100 100 98 86 79 100 95 76 25 2 5 4 2 0 0 0 0 0 0 0 5 21 83 16 8 25 59 100 44 71 90 10 2 0 2 33
84 93 100 8 60 9 100 100 100 100 98 100 17 72 4 38 5 79 5 0 0 0 0 0 0 0 0 5 3 5 7 5 9 100 100 11 6 4 2 2 4 4 1 0
100 31 5 13 57 18 98 100 88 89 100 100 100 100 86 0 0 3 29 4 1 0 0 0 0 0 0 3 0 0 0 93 100 97 32 5 5 6 8 5 3 4 0 0
100 100 100 100 100 100 100 100 100 100 100 100 77 1 32 0 0 0 0 0 2 5 0 0 0 3 5 1 0 1 80 99 69 23 24 88 99 93 95 98 53 2 4 2
41 24 72 58 90 100 22 34 13 24 33 100 82 100 3 0 0 0 0 0 0 0 0 1 5 16 22 26 2 27 89 30 5 99 25 85 100 100 100 89 76 71 5 5
2 35 12 1 1 1 0 26 12 99 98 2 8 86 0 0 0 0 0 0 0 0 0 7 65 74 100 72 11 96 27 5 12 99 70 94 57 62 94 49 92 98 85 32
0 0 22 25 8 0 0 14 64 2 4 67 72 100 0 0 0 0 0 0 0 0 0 49 46 99 100 93 97 94 82 20 79 40 5 5 5 5 4 5 4 78 98 57
1 0 2 100 100 95 6 78 5 26 100 100 26 40 0 0 0 0 0 0 0 0 0 96 90 100 100 99 16 51 80 52 55 93 5 5 5 5 3 4 4 2 0 3
59 4 35 5 34 1 14 58 0 3 100 17 92 7 5 1 0 0 0 0 0 0 6 93 100 93 100 89 66 70 100 100 100 88 16 4 1 2 1 4 0 0 15 53
91 89 3 0 0 0 0 0 0 0 0 0 1 0 0 0 0 0 0 0 0 3 96 99 81 90 29 85 100 100 100 100 100 5 5 1 0 0 2 8 49 70 75 100
5 90 81 79 37 4 4 14 75 9 0 4 14 37 4 0 0 0 0 0 0 1 51 100 100 100 98 36 10 13 5 5 7 42 5 12 20 93 100 100 99 73 87 93
81 39 31 55 84 3 63 84 69 100 6 0 0 0 4 5 0 0 0 0 0 0 45 100 100 100 100 100 100 95 98 73 9 51 93 87 99 100 86 81 81 64 56 75
12 91 50 1 5 61 97 3 50 51 40 17 0 0 0 0 0 0 0 0 0 0 0 7 99 100 100 100 100 100 100 100 99 65 37 40 34 33 29 16 10 0 1 0
51 5 5 5 3 75 99 88 13 5 2 0 0 0 0 0 0 0 0 0 0 0 0 0 2 24 72 5 81 100 59 1 8 80 100 33 5 7 52 89 5 0 0 0
30 42 5 5 5 24 24 2 4 1 1 0 0 0 0 0 0 0 0 0 0 0 0 0 0 0 0 7 6 2 0 2 3 5 17 26 5 22 66 33 0 0 1 0
0 0 3 31 5 8 4 5 5 3 58 2 0 0 0 4 1 0 0 0 0 0 0 0 0 0 0 0 0 0 1 2 3 5 5 5 3 31 12 21 1 0 0 0
0 0 0 0 0 0 0 0 0 5 6 6 71 0 0 5 0 0 0 0 0 0 0 0 0 0 0 0 0 0 4 4 4 54 9 9 5 41 38 38 0 0 0 0
0 0 0 0 0 0 0 0 0 0 68 0 79 26 2 0 5 88 5 0 1 0 0 0 0 0 0 0 0 0 5 89 70 46 95 100 98 100 100 19 0 0 0 0
0 0 0 0 0 0 0 0 0 0 0 0 1 92 75 25 5 92 94 14 1 2 0 0 0 0 0 0 0 8 0 23 99 96 100 100 64 62 6 0 4 0 0 18
0 0 0 0 0 0 0 0 0 0 0 0 0 20 97 98 7 98 86 100 6 5 0 0 1 0 0 0 0 0 0 0 0 1 2 4 3 0 0 5 0 70 37 0